Regional Weather Roundup
Issued by NWS

Home | Current Version | Previous Version | Text Only | Print | Product List | Glossary On
Versions: 1 2 3 4 5 6 7 8 9 10 11 12 13 14 15 16 17 18 19 20 21 22 23 24 25 26 27 28 29 30 31 32 33 34 35 36 37 38 39 40 41 42 43 44 45 46 47 48 49 50
000
ASUS43 KLSX 020759
RWRMO

WEATHER SUMMARY FOR MISSOURI
NATIONAL WEATHER SERVICE SPRINGFIELD MO
300 AM CDT SUN AUG 02 2015

NOTE: "FAIR" INDICATES FEW OR NO CLOUDS BELOW 12,000 FEET WITH NO
       SIGNIFICANT WEATHER AND/OR OBSTRUCTIONS TO VISIBILITY.
       CURRENT SKY AND/OR WEATHER CONDITIONS ARE NOT AVAILABLE FOR
       CHILLICOTHE AND FARMINGTON.

MOZ001>031-035>038-043-044-053-054-020900-
...NORTHERN AND WESTERN MISSOURI...

CITY           SKY/WX    TMP DP  RH WIND       PRES   REMARKS
KANSAS CTY INT CLEAR     68  64  87 S7        29.94F
KANSAS C DTWN  CLEAR     74  66  76 SW5       29.93F
LEE`S SUMMIT   CLEAR     73  65  75 SW6       29.95F
ST JOSEPH      CLEAR     71  64  78 S6        29.92F
CHILLICOTHE      N/A     70  63  78 CALM      29.93F
KIRKSVILLE     PTCLDY    67  62  84 S6        29.95F

$$
MOZ066>068-077>081-088>096-101>105-020900-
...SOUTHWEST MISSOURI...

CITY           SKY/WX    TMP DP  RH WIND       PRES   REMARKS
SPRINGFIELD    CLEAR     71  66  84 S5        29.99F
JOPLIN         CLEAR     71  66  84 SE3       29.98F

$$
MOZ032>034-039>042-045>050-055>058-069>072-020900-
...CENTRAL MISSOURI...

CITY           SKY/WX    TMP DP  RH WIND       PRES   REMARKS
COLUMBIA       CLEAR     69  67  93 SE7       29.97S
JEFFERSON CITY CLEAR     69  67  93 E3        29.95F
ROLLA          PTCLDY    68  66  93 SW6       29.97F
SEDALIA        PTCLDY    68  63  84 S7        29.96F
OSAGE BEACH    PTCLDY    68  64  88 CALM      29.97S

$$
MOZ051-052-059>065-020900-
...EAST CENTRAL MISSOURI...

CITY           SKY/WX    TMP DP  RH WIND       PRES   REMARKS
ST LOUIS INTL  MOCLDY    79  70  74 S7        29.96F
SPIRIT OF STL  MOCLDY    72  70  93 CALM      29.95S
ST CHARLES     PTCLDY    75  71  87 CALM      29.95F

$$
MOZ072>076-082>087-097>100-106>115-020900-
...SOUTH CENTRAL AND SOUTHEAST MISSOURI...

CITY           SKY/WX    TMP DP  RH WIND       PRES   REMARKS
CAPE GIRARDEAU PTCLDY    71  70  96 CALM      29.96F
FARMINGTON     PTCLDY    72  70  94 S3        30.03S
POPLAR BLUFF   PTCLDY    73  71  93 CALM      29.95F
WEST PLAINS    CLEAR     68  65  90 CALM      30.02F

$$



USA.gov is the U.S. government's official web portal to all federal, state and local government web resources and services.